EW3608 Weather Reports


time (UTC)temp
F
wind
direction
speed
knots
gust
knots
rain 1hr
in
rain 24hr
in
rain mn
in
humidity
%
barometer
mb
20260902090014 63 219 0.0 3.5 0.00 0.00 0.00 50 1018.4
20260902085513 63 205 0.9 1.7 0.00 0.00 0.00 52 1018.4
20260902085011 63 62 0.0 1.7 0.00 0.00 0.00 55 1018.4
20260902084530 63 46 0.9 1.7 0.00 0.00 0.00 55 1018.4
20260902084017 63 84 0.0 1.7 0.00 0.00 0.00 54 1018.4
20260902083521 63 167 0.0 1.7 0.00 0.00 0.00 54 1018.3
20260902083011 64 252 0.0 1.7 0.00 0.00 0.00 53 1018.3
20260902082507 65 252 0.0 1.7 0.00 0.00 0.00 51 1018.3
20260902082010 65 253 0.0 1.7 0.00 0.00 0.00 50 1018.3
20260902081521 66 257 0.0 1.7 0.00 0.00 0.00 48 1018.3
20260902081010 67 257 0.0 1.7 0.00 0.00 0.00 46 1018.3
20260902080514 68 257 0.0 0.9 0.00 0.00 0.00 44 1018.3
20260902080008 69 257 0.0 1.7 0.00 0.00 0.00 43 1018.2
20260902075503 69 257 0.0 1.7 0.00 0.00 0.00 41 1018.3
20260902075004 70 317 0.0 1.7 0.00 0.00 0.00 40 1018.3
20260902074511 70 342 0.0 5.2 0.00 0.00 0.00 39 1018.4
20260902074008 70 276 0.9 5.2 0.00 0.00 0.00 39 1018.3
20260902073511 70 236 0.0 2.6 0.00 0.00 0.00 39 1018.3
20260902073026 70 269 0.9 4.3 0.00 0.00 0.00 39 1018.2
20260902072515 71 171 0.9 4.3 0.00 0.00 0.00 39 1018.2
20260902072007 71 250 0.9 3.5 0.00 0.00 0.00 39 1018.2
20260902071504 71 262 1.7 5.2 0.00 0.00 0.00 39 1018.3
20260902071004 70 255 0.9 5.2 0.00 0.00 0.00 39 1018.3
20260902070505 70 274 0.9 4.3 0.00 0.00 0.00 39 1018.3
20260902070018 70 254 0.9 3.5 0.00 0.00 0.00 39 1018.3
20260902065511 70 262 0.9 2.6 0.00 0.00 0.00 39 1018.3
20260902065014 70 263 0.9 2.6 0.00 0.00 0.00 39 1018.3
20260902064528 70 246 0.9 2.6 0.00 0.00 0.00 39 1018.4
20260902064002 70 304 0.0 3.5 0.00 0.00 0.00 40 1018.3
20260902063508 70 265 0.9 3.5 0.00 0.00 0.00 40 1018.3
20260902063008 70 292 0.0 3.5 0.00 0.00 0.00 40 1018.3
20260902062508 70 265 0.9 2.6 0.00 0.00 0.00 40 1018.3
20260902062010 70 277 0.0 2.6 0.00 0.00 0.00 40 1018.4
20260902061525 69 277 0.0 3.5 0.00 0.00 0.00 40 1018.4
20260902061013 69 155 0.9 3.5 0.00 0.00 0.00 40 1018.5
20260902060513 69 255 0.9 2.6 0.00 0.00 0.00 40 1018.6
20260902060006 69 202 0.0 3.5 0.00 0.00 0.00 40 1018.6
20260902055506 69 317 0.9 3.5 0.00 0.00 0.00 40 1018.6
20260902055008 69 10 0.0 1.7 0.00 0.00 0.00 40 1018.7
20260902054516 69 332 0.0 1.7 0.00 0.00 0.00 40 1018.6
20260902054011 69 336 0.9 1.7 0.00 0.00 0.00 40 1018.7
20260902053513 69 247 0.0 1.7 0.00 0.00 0.00 40 1018.6
20260902053029 69 245 0.0 1.7 0.00 0.00 0.00 40 1018.5
20260902052518 69 250 0.9 1.7 0.00 0.00 0.00 41 1018.6
20260902052003 69 327 0.9 2.6 0.00 0.00 0.00 40 1018.7
20260902051508 69 13 0.0 2.6 0.00 0.00 0.00 40 1018.6
20260902051010 69 280 1.7 2.6 0.00 0.00 0.00 41 1018.5
20260902050508 69 250 0.0 1.7 0.00 0.00 0.00 41 1018.5
20260902050030 68 360 0.0 1.7 0.00 0.00 0.00 41 1018.7
20260902045515 68 305 0.0 1.7 0.00 0.00 0.00 41 1018.8
20260902045015 68 204 0.0 1.7 0.00 0.00 0.00 42 1018.8
20260902044531 68 287 0.0 1.7 0.00 0.00 0.00 43 1018.9
20260902044004 68 268 0.0 1.7 0.00 0.00 0.00 43 1018.9
20260902043503 68 261 0.0 1.7 0.00 0.00 0.00 45 1018.9
20260902043009 68 352 0.0 1.7 0.00 0.00 0.00 49 1018.9
20260902042507 68 352 0.0 1.7 0.00 0.00 0.00 47 1019.0
20260902042011 68 340 0.0 1.7 0.00 0.00 0.00 47 1019.0
20260902041540 68 305 0.0 1.7 0.00 0.00 0.00 48 1018.9
20260902041014 68 229 0.0 1.7 0.00 0.00 0.00 49 1018.9
20260902040514 69 229 0.0 1.7 0.00 0.00 0.00 52 1019.0
20260902040005 69 162 0.0 1.7 0.00 0.00 0.00 52 1019.0
20260902035504 70 155 0.0 1.7 0.00 0.00 0.00 52 1019.0
20260902035008 70 155 0.0 1.7 0.00 0.00 0.00 51 1019.1
20260902034513 71 155 0.0 1.7 0.00 0.00 0.00 51 1019.1
20260902034016 71 155 0.0 1.7 0.00 0.00 0.00 50 1019.1
20260902033515 71 210 0.0 1.7 0.00 0.00 0.00 48 1019.1
20260902033027 72 222 0.0 1.7 0.00 0.00 0.00 47 1018.9
20260902032517 72 221 0.0 1.7 0.00 0.00 0.00 46 1018.7
20260902032005 73 205 0.0 1.7 0.00 0.00 0.00 45 1018.7
20260902031511 73 205 0.0 1.7 0.00 0.00 0.00 45 1018.6
20260902031008 73 205 0.0 1.7 0.00 0.00 0.00 44 1018.6
20260902030513 74 205 0.0 1.7 0.00 0.00 0.00 42 1018.5
20260902030022 74 229 0.0 1.7 0.00 0.00 0.00 41 1018.7
20260902025516 75 229 0.0 1.7 0.00 0.00 0.00 41 1018.5
20260902025019 76 46 0.0 1.7 0.00 0.00 0.00 39 1018.5
20260902024529 76 46 0.0 1.7 0.00 0.01 0.00 39 1018.4
20260902024003 76 46 0.9 1.7 0.00 0.01 0.00 37 1018.2
20260902023505 77 19 0.0 2.6 0.00 0.01 0.00 37 1018.0
20260902023017 77 337 0.9 4.3 0.00 0.05 0.00 37 1017.8
20260902022512 77 21 1.7 5.2 0.00 0.07 0.00 37 1017.8
20260902022016 77 22 0.9 8.7 0.00 0.07 0.00 37 1017.8
20260902021525 76 350 2.6 8.7 0.00 0.07 0.00 37 1017.8
20260902021014 76 39 0.9 2.6 0.00 0.07 0.00 38 1017.7
20260902020517 76 15 0.9 1.7 0.00 0.07 0.00 38 1017.6
20260902020008 77 65 0.0 1.7 0.00 0.07 0.00 36 1017.5
20260902015508 77 187 0.0 4.3 0.00 0.07 0.00 35 1017.5
20260902015007 77 134 0.0 4.3 0.00 0.07 0.00 35 1017.6
20260902014523 77 202 0.0 1.7 0.00 0.07 0.00 37 1017.6
20260902014011 77 232 0.0 1.7 0.00 0.07 0.00 38 1017.5
20260902013515 78 165 0.0 1.7 0.00 0.07 0.00 37 1017.4
20260902013029 78 165 0.0 1.7 0.00 0.07 0.00 37 1017.3
20260902012515 79 196 0.0 1.7 0.00 0.07 0.00 38 1017.4
20260902012006 79 168 0.0 1.7 0.00 0.07 0.00 37 1017.4
20260902011518 80 93 0.0 1.7 0.00 0.07 0.00 35 1017.2
20260902011008 80 93 0.0 1.7 0.00 0.07 0.00 35 1017.1
20260902010514 81 93 0.0 2.6 0.00 0.07 0.00 35 1017.0
20260902010035 81 86 0.0 2.6 0.00 0.07 0.00 33 1016.9
20260902005518 81 69 0.0 2.6 0.00 0.07 0.00 34 1016.8
20260902005017 81 40 0.0 2.6 0.00 0.07 0.00 33 1016.8
20260902004536 81 94 0.9 2.6 0.00 0.07 0.00 32 1016.9
20260902004005 81 74 0.0 1.7 0.00 0.07 0.00 34 1016.9
20260902003507 81 92 0.0 1.7 0.00 0.07 0.00 34 1017.0
20260902003104 81 50 0.0 2.6 0.00 0.07 0.00 34 1017.0
20260902002511 81 49 0.9 2.6 0.00 0.07 0.00 32 1017.0
20260902002015 82 43 0.9 3.5 0.00 0.07 0.00 32 1017.0
20260902001534 82 86 0.9 6.1 0.00 0.07 0.00 33 1017.0
20260902001016 82 73 0.9 6.1 0.00 0.07 0.00 32 1017.0
20260902000503 83 13 1.7 5.2 0.00 0.07 0.00 30 1017.0
20260902000016 83 75 2.6 4.3 0.00 0.07 0.00 28 1016.9
20260901235508 83 13 1.7 3.5 0.00 0.07 0.00 29 1016.9
20260901235011 84 59 1.7 3.5 0.00 0.07 0.00 28 1016.9
20260901234524 84 32 0.9 3.5 0.00 0.07 0.00 29 1016.9
20260901234016 84 352 0.0 4.3 0.00 0.07 0.00 29 1016.9
20260901233520 84 34 1.7 4.3 0.00 0.07 0.00 29 1016.9
20260901233036 84 56 1.7 5.2 0.00 0.07 0.00 28 1016.9
20260901232509 85 78 2.6 5.2 0.00 0.07 0.00 28 1016.8
20260901232007 86 9 0.9 5.2 0.00 0.07 0.00 27 1016.8
20260901231516 86 300 2.6 5.2 0.00 0.07 0.00 25 1016.8
20260901231012 87 46 1.7 7.8 0.00 0.07 0.00 25 1016.9
20260901230514 87 332 2.6 13.0 0.00 0.07 0.00 24 1016.8
20260901230029 88 44 6.1 13.0 0.00 0.07 0.00 24 1016.5
20260901225517 89 293 2.6 10.4 0.00 0.07 0.00 22 1016.7
20260901225017 89 310 1.7 10.4 0.00 0.07 0.00 22 1016.7
20260901224510 89 240 2.6 8.7 0.00 0.07 0.00 21 1016.6
20260901224008 90 282 1.7 7.0 0.00 0.07 0.00 21 1016.6
20260901223512 90 174 0.0 7.0 0.00 0.07 0.00 21 1016.6
20260901223023 90 338 2.6 10.4 0.00 0.07 0.00 20 1016.7
20260901222516 90 279 2.6 10.4 0.00 0.07 0.00 20 1016.8
20260901222013 89 212 2.6 9.6 0.00 0.07 0.00 21 1016.8
20260901221539 89 218 1.7 12.2 0.00 0.07 0.00 21 1017.0
20260901221018 89 24 1.7 12.2 0.00 0.07 0.00 21 1017.0
20260901220508 88 254 0.9 13.0 0.00 0.07 0.00 21 1017.2
20260901220023 88 45 1.7 13.0 0.00 0.07 0.00 22 1017.3
20260901215512 88 248 1.7 6.1 0.00 0.07 0.00 23 1017.4
20260901215016 87 286 0.9 5.2 0.00 0.07 0.00 23 1017.4
20260901214526 86 218 0.9 3.5 0.00 0.07 0.00 23 1017.5
20260901214015 86 299 0.9 6.1 0.00 0.07 0.00 23 1017.6
20260901213504 85 253 1.7 7.0 0.00 0.07 0.00 23 1017.6
20260901213008 86 240 1.7 7.0 0.00 0.07 0.00 24 1017.7
20260901212507 86 343 1.7 5.2 0.00 0.07 0.00 23 1017.8
20260901212009 86 331 0.9 7.0 0.00 0.07 0.00 23 1017.9
20260901211521 86 238 2.6 7.0 0.00 0.07 0.00 24 1017.9
20260901211013 86 5 1.7 3.5 0.00 0.07 0.00 28 1017.9
20260901210515 86 307 0.9 3.5 0.00 0.07 0.00 28 1017.9
20260901210004 85 296 0.0 3.5 0.00 0.07 0.00 30 1018.0
20260901205504 85 38 0.0 3.5 0.00 0.07 0.00 30 1018.0
20260901205008 85 23 0.9 3.5 0.00 0.07 0.00 30 1018.1
20260901204514 85 73 0.0 3.5 0.00 0.07 0.00 31 1018.0
20260901204011 84 199 0.0 5.2 0.00 0.07 0.00 30 1018.0
20260901203514 84 131 0.9 5.2 0.00 0.07 0.00 29 1018.1
20260901203029 84 112 0.9 3.5 0.00 0.07 0.00 31 1018.1
20260901202515 84 105 0.0 6.1 0.00 0.07 0.00 30 1018.2
20260901202007 84 198 1.7 6.1 0.00 0.07 0.00 30 1018.2
20260901201508 85 149 1.7 6.1 0.00 0.07 0.00 30 1018.1
20260901201008 86 229 1.7 6.1 0.00 0.07 0.00 29 1018.2
20260901200508 86 114 1.7 3.5 0.00 0.07 0.00 30 1018.2
20260901200020 87 184 0.9 3.5 0.00 0.07 0.00 28 1018.2
20260901195511 87 244 0.9 5.2 0.00 0.07 0.00 28 1018.2
20260901195013 87 161 0.9 5.2 0.00 0.07 0.00 28 1018.2
20260901194533 87 210 0.9 6.1 0.00 0.07 0.00 27 1018.2
20260901194003 88 96 1.7 6.1 0.00 0.07 0.00 27 1018.2
20260901193506 88 268 0.0 5.2 0.00 0.07 0.00 28 1018.1
20260901193010 87 86 0.9 5.2 0.00 0.07 0.00 29 1018.1
20260901192511 87 111 1.7 3.5 0.00 0.07 0.00 28 1018.2
20260901192010 87 145 1.7 8.7 0.00 0.07 0.00 29 1018.3
20260901191535 86 251 1.7 10.4 0.00 0.07 0.00 29 1018.3
20260901191016 87 227 3.5 10.4 0.00 0.07 0.00 25 1018.3
20260901190517 88 18 2.6 7.8 0.00 0.07 0.00 25 1018.4
20260901190012 87 194 2.6 7.8 0.00 0.07 0.00 27 1018.6
20260901185509 86 248 1.7 7.0 0.00 0.07 0.00 25 1018.5
20260901185012 86 306 1.7 7.8 0.00 0.07 0.00 25 1018.8
20260901184516 86 234 3.5 7.8 0.00 0.07 0.00 25 1018.9
20260901184012 85 92 0.9 5.2 0.00 0.07 0.00 25 1019.0
20260901183514 86 360 0.9 4.3 0.00 0.07 0.00 26 1019.2
20260901183030 86 319 1.7 4.3 0.00 0.07 0.00 30 1019.3
20260901182517 85 91 0.9 8.7 0.00 0.07 0.00 27 1019.2
20260901182006 85 260 3.5 8.7 0.00 0.07 0.00 27 1019.2
20260901181510 85 153 3.5 7.8 0.00 0.07 0.00 29 1019.2
20260901181008 85 173 2.6 8.7 0.00 0.07 0.00 26 1019.3
20260901180512 85 175 2.6 10.4 0.00 0.07 0.00 27 1019.2
20260901180029 84 254 2.6 10.4 0.00 0.07 0.00 28 1019.2
20260901175515 84 202 1.7 8.7 0.00 0.07 0.00 28 1019.3
20260901175013 83 217 2.6 13.0 0.00 0.07 0.00 27 1019.5
20260901174539 83 292 5.2 17.4 0.00 0.07 0.00 28 1019.6
20260901174008 83 360 3.5 17.4 0.00 0.07 0.00 28 1019.6
20260901173508 83 233 1.7 9.6 0.00 0.07 0.00 29 1019.7
20260901173015 83 340 1.7 10.4 0.00 0.07 0.00 29 1019.9
20260901172514 82 24 3.5 10.4 0.00 0.07 0.00 30 1019.9
20260901172014 82 226 1.7 7.8 0.00 0.07 0.00 30 1020.0
20260901171528 82 112 1.7 9.6 0.00 0.07 0.00 31 1020.0
20260901171014 81 291 1.7 11.3 0.00 0.07 0.00 32 1020.0
20260901170516 81 236 5.2 16.5 0.00 0.07 0.00 32 1020.1
20260901170009 81 182 4.3 17.4 0.00 0.07 0.00 33 1020.1
20260901165510 80 211 3.5 17.4 0.00 0.07 0.00 33 1020.1
20260901165010 80 115 3.5 13.0 0.00 0.07 0.00 34 1020.2
20260901164523 79 84 2.6 8.7 0.00 0.07 0.00 34 1020.0
20260901164016 79 191 0.9 3.5 0.00 0.07 0.00 40 1020.0
20260901163515 78 334 0.0 7.0 0.00 0.07 0.00 41 1020.0
20260901163059 77 115 0.0 7.0 0.00 0.07 0.00 42 1020.0
20260901162519 77 20 2.6 6.1 0.00 0.07 0.00 44 1019.9
20260901162007 76 115 0.9 3.5 0.00 0.07 0.00 44 1020.0
20260901161514 75 336 1.7 3.5 0.00 0.07 0.00 45 1020.1
20260901161012 73 338 0.9 1.7 0.00 0.07 0.00 49 1020.1
20260901160515 72 113 0.0 1.7 0.00 0.07 0.00 54 1020.1
20260901160026 71 137 0.9 2.6 0.00 0.07 0.00 67 1020.1
20260901155517 70 51 1.7 2.6 0.00 0.07 0.00 67 1020.2
20260901155004 70 352 0.9 1.7 0.00 0.07 0.00 71 1020.3
20260901154509 69 63 0.0 2.6 0.00 0.07 0.00 71 1020.3
20260901154007 69 9 0.9 3.5 0.00 0.07 0.00 70 1020.4
20260901153510 68 9 0.9 3.5 0.00 0.07 0.00 72 1020.4
20260901153035 67 26 0.9 2.6 0.00 0.07 0.00 74 1020.5
20260901152511 67 256 0.0 1.7 0.00 0.07 0.00 76 1020.5
20260901152015 66 47 0.9 1.7 0.00 0.07 0.00 74 1020.5
20260901151508 66 18 0.9 1.7 0.00 0.07 0.00 76 1020.6
20260901151005 65 20 0.0 0.0 0.00 0.07 0.00 78 1020.6
20260901150505 65 20 0.0 1.7 0.00 0.07 0.00 77 1020.5
20260901150012 65 20 0.0 1.7 0.00 0.07 0.00 80 1020.4
20260901145512 64 345 0.9 1.7 0.00 0.07 0.00 78 1020.4
20260901145014 63 98 0.9 1.7 0.00 0.07 0.00 82 1020.3
20260901144525 63 171 0.0 1.7 0.00 0.07 0.00 82 1020.4
20260901144019 62 175 0.0 1.7 0.00 0.07 0.00 82 1020.3
20260901143504 62 175 0.0 1.7 0.00 0.07 0.00 85 1020.4
20260901143005 61 175 0.0 1.7 0.00 0.07 0.00 85 1020.5
20260901142506 61 192 0.9 1.7 0.00 0.07 0.00 86 1020.5
20260901142007 61 202 0.0 1.7 0.00 0.07 0.00 88 1020.5
20260901141518 60 161 0.0 1.7 0.00 0.07 0.00 88 1020.5
20260901141011 60 209 0.0 1.7 0.00 0.07 0.00 89 1020.5
20260901140512 59 209 0.0 1.7 0.00 0.07 0.00 89 1020.5
20260901140030 59 209 0.0 1.7 0.00 0.07 0.00 89 1020.4
20260901135517 59 209 0.0 1.7 0.00 0.07 0.00 89 1020.5
20260901135005 59 209 0.0 1.7 0.00 0.07 0.00 88 1020.4
20260901134514 59 209 0.0 1.7 0.00 0.07 0.00 89 1020.4
20260901134009 59 210 0.0 1.7 0.00 0.07 0.00 88 1020.3
20260901133513 59 211 0.0 1.7 0.00 0.07 0.00 89 1020.3
20260901133023 58 210 0.0 1.7 0.00 0.07 0.00 89 1020.3
20260901132516 58 180 0.0 1.7 0.00 0.07 0.00 89 1020.1
20260901132019 58 184 0.0 1.7 0.00 0.07 0.00 89 1020.1
20260901131530 58 188 0.0 0.9 0.00 0.07 0.00 88 1020.0
20260901131006 58 188 0.0 0.9 0.00 0.07 0.00 88 1019.8
20260901130508 58 188 0.0 1.7 0.00 0.07 0.00 88 1019.7
20260901130017 58 188 0.0 1.7 0.00 0.07 0.00 88 1019.7
20260901125516 58 188 0.0 2.6 0.00 0.07 0.00 88 1019.8
20260901125014 58 189 0.0 2.6 0.00 0.07 0.00 89 1019.6
20260901124503 58 182 0.0 1.7 0.00 0.07 0.00 89 1019.5
20260901124004 58 182 0.0 1.7 0.00 0.07 0.00 89 1019.5
20260901123503 58 182 0.0 1.7 0.00 0.07 0.00 88 1019.4
20260901123010 58 182 0.0 1.7 0.00 0.07 0.00 89 1019.3
20260901122512 58 183 0.0 1.7 0.00 0.07 0.00 88 1019.2
20260901122011 58 183 0.0 1.7 0.00 0.07 0.00 88 1019.2
20260901121534 58 183 0.0 1.7 0.00 0.07 0.00 88 1019.2
20260901121018 58 183 0.0 1.7 0.00 0.07 0.00 87 1019.3
20260901120504 58 182 0.0 1.7 0.00 0.07 0.00 88 1019.3
20260901120004 58 146 0.0 1.7 0.00 0.07 0.00 88 1019.4
20260901115507 58 250 0.0 1.7 0.00 0.07 0.00 90 1019.4
20260901115008 58 190 0.0 1.7 0.00 0.07 0.00 90 1019.4
20260901114522 58 207 0.0 1.7 0.00 0.07 0.00 91 1019.3
20260901114011 58 197 0.0 1.7 0.00 0.07 0.00 90 1019.3
20260901113511 58 183 0.0 1.7 0.00 0.07 0.00 91 1019.3
20260901113028 58 183 0.0 1.7 0.00 0.07 0.00 91 1019.2
20260901112503 58 183 0.0 1.7 0.00 0.07 0.00 91 1019.2
20260901112003 58 183 0.0 0.9 0.00 0.07 0.00 90 1019.3
20260901111508 59 183 0.0 0.0 0.00 0.07 0.00 90 1019.3
20260901111006 59 183 0.0 0.0 0.00 0.07 0.00 90 1019.4
20260901110510 59 183 0.0 0.0 0.00 0.07 0.00 90 1019.4
20260901110023 59 183 0.0 0.0 0.00 0.07 0.00 91 1019.4
20260901105513 59 183 0.0 0.0 0.00 0.07 0.00 90 1019.4
20260901105019 59 183 0.0 1.7 0.00 0.07 0.00 90 1019.4
20260901104507 59 183 0.0 1.7 0.00 0.07 0.00 90 1019.6
20260901104006 59 183 0.0 1.7 0.00 0.07 0.00 90 1019.6
20260901103507 59 179 0.0 1.7 0.00 0.07 0.00 90 1019.6
20260901103017 59 179 0.0 1.7 0.00 0.07 0.00 90 1019.6
20260901102512 60 219 0.0 1.7 0.00 0.07 0.00 90 1019.6
20260901102013 60 219 0.0 1.7 0.00 0.07 0.00 90 1019.6
20260901101528 60 221 0.0 1.7 0.00 0.07 0.00 90 1019.6
20260901101016 60 229 0.0 1.7 0.00 0.07 0.00 89 1019.8
20260901100503 60 229 0.0 1.7 0.00 0.07 0.00 89 1020.0
20260901100011 60 229 0.0 1.7 0.00 0.07 0.00 89 1019.9
20260901095506 60 159 0.0 1.7 0.00 0.07 0.00 89 1019.8
20260901095008 60 159 0.0 0.0 0.00 0.07 0.00 89 1019.9
20260901094522 60 159 0.0 0.0 0.00 0.07 0.00 90 1019.9
20260901094012 60 159 0.0 0.9 0.00 0.07 0.00 89 1019.9
20260901093516 60 159 0.0 1.7 0.00 0.07 0.00 90 1020.2